{"data":{"norad_id":55654,"intl_designator":"2023-021AC","name":"STARLINK-5070","alt_names":[],"object_type":"PAYLOAD","status":"ACTIVE","operator":null,"country":"US","launch_date":"2023-02-17","launch_site_code":"AFWTR","launch_vehicle":null,"mission":null,"orbit_class":"UNKNOWN","rcs_meters":null,"size_class":null,"mass_kg":null,"dimensions":null,"purposes":["comms"],"wikipedia_slug":null,"has_3d_model":false,"image_url":null,"decayed_at":null,"tle_current":{"epoch":"2026-09-20T16:05:39.614496Z","epoch_age_seconds":88398,"freshness":"FRESH","line1":"1 55654U 23021AC  26263.67059739  .00000436  00000+0  44330-4 0  9998","line2":"2 55654  69.9992  53.0012 0003151 273.4371  86.6427 14.98336386197998","mean_motion":14.98336386,"eccentricity":0.0003151,"inclination_deg":69.9992,"raan_deg":53.0012,"arg_perigee_deg":273.4371,"mean_anomaly_deg":86.6427,"bstar":4.433e-5,"rev_number":19799,"period_min":96.106589511869,"perigee_km":569.84614327903,"apogee_km":574.22614239365,"semimajor_km":6950.1731428363,"source":"CELESTRAK","updated_at":"2026-09-21T09:00:33.286302Z"}}}